Orbital Elements at Epoch 2459200.5 (2020-Dec-17.0) TDB
Reference: JPL 29 (heliocentric ecliptic J2000)
Element | Value | Uncertainty (1-sigma) | Units |
e | .1439883100094311 | 3.3754e-08 | |
a | 2.69562382320595 | 1.192e-08 | au |
q | 2.307485504481363 | 9.037e-08 | au |
i | 14.05692343401144 | 4.4823e-06 | deg |
node | 65.69247490629964 | 1.5545e-05 | deg |
peri | 30.27766206643179 | 2.2372e-05 | deg |
M | 185.8752061777224 | 1.6434e-05 | deg |
tp | 2459982.389660437574 (2023-Feb-06.88966044) | 7.5882e-05 | TDB |
period | 1616.543351343879 4.43 | 1.0723e-05 2.936e-08 | d yr |
n | .2226973991762867 | 1.4772e-09 | deg/d |
Q | 3.083762141930536 | 1.3637e-08 | au |
|
| | Orbit Determination Parameters
Additional Information
|